This demonstration page uses our WeatherBlox Daily Observations layout. Learn more.

39.92423, -83.80882

Hourly Observations for April 30, 2017

Temp ( °F °C ) Dew Point ( °F °C ) Humidity (%) Winds ( mph kmh ) Pressure ( in mb ) Visibility ( mi km ) Precip ( " mm )
12:24 am 00:24 Cloudy with Mist and Fog 55 13 55 13 100 100 E 13 20 30 1016 1.5 2.41401 0 0
12:37 am 00:37 Cloudy with Mist and Fog 55 13 55 13 100 100 E 15 24 30 1016 2.5 4.02335 0 0
12:45 am 00:45 Cloudy with Mist and Fog 57 14 55 13 94 94 E 17 28 29.97 1015 3 4.82802 0 0
12:54 am 00:54 Cloudy with Mist and Fog 57 14 55 13 94 94 E 17 28 29.97 1015 2.5 4.02335 0 0
12:56 am 00:56 Cloudy with Mist and Fog 57 13.9 56 13.3 96 96 E 20 31 29.98 1015 3 4.82802 0 0
1:08 am 01:08 Cloudy with Mist and Fog 57 14 55 13 94 94 ESE 15 24 29.97 1015 2.5 4.02335 0 0
1:40 am 01:40 Cloudy with Nearby Thunderstorms 57 14 57 14 100 100 ESE 9 15 29.97 1015 2.5 4.02335 0 0
1:56 am 01:56 Cloudy with Mist and Fog 57 13.9 57 13.9 100 100 E 12 19 29.97 1015 2.5 4.02335 0 0
2:32 am 02:32 Cloudy with Nearby Thunderstorms 57 14 57 14 100 100 N 6 9 30 1016 3 4.82802 0 0
2:56 am 02:56 Cloudy with Mist and Fog 57 13.9 56 13.3 96 96 N 9 15 29.98 1015 3 4.82802 0 0
3:56 am 03:56 Cloudy with Mist and Fog 55 12.8 55 12.8 100 100 NNE 8 13 29.97 1015 3 4.82802 0 0
4:43 am 04:43 Cloudy with Mist and Fog 55 13 55 13 100 100 E 8 13 29.97 1015 2.5 4.02335 0 0
4:56 am 04:56 Cloudy with Mist and Fog 56 13.3 55 12.8 97 97 E 9 15 29.95 1014 1.5 2.41401 0 0
5:07 am 05:07 Cloudy with Mist and Fog 55 13 55 13 100 100 E 9 15 29.94 1014 0.75 1.207005 0 0
5:27 am 05:27 Cloudy with Fog 55 13 55 13 100 100 E 9 15 29.97 1015 0.5 0.80467 0 0
5:56 am 05:56 Cloudy with Fog 56 13.3 56 13.3 100 100 E 12 19 29.95 1014 0.25 0.402335 0 0
6:23 am 06:23 Cloudy with Fog 55 13 55 13 100 100 E 9 15 29.94 1014 0.5 0.80467 0 0
6:34 am 06:34 Cloudy with Fog 55 13 55 13 100 100 ESE 10 17 29.97 1015 0.25 0.402335 0 0
6:56 am 06:56 Cloudy with Fog 57 13.9 56 13.3 96 96 ESE 9 15 29.96 1014 0.25 0.402335 0 0
7:42 am 07:42 Cloudy with Mist and Fog 57 14 57 14 100 100 ESE 9 15 29.94 1014 0.75 1.207005 0 0
7:47 am 07:47 Cloudy with Mist and Fog 57 14 57 14 100 100 ESE 8 13 29.94 1014 1.25 2.011675 0 0
7:56 am 07:56 Cloudy with Mist and Fog 59 15 59 15 100 100 ESE 8 13 29.95 1014 2 3.21868 0 0
8:13 am 08:13 Partly Cloudy with Mist and Fog 61 16 61 16 100 100 SE 8 13 29.94 1014 3 4.82802 0 0
8:56 am 08:56 Mostly Cloudy 64 17.8 62 16.7 93 93 SE 8 13 29.96 1015 8 12.87472 0 0
9:56 am 09:56 Sunny 69 20.6 64 17.8 84 84 SSE 10 17 29.93 1014 10 16.0934 0 0
10:56 am 10:56 Mostly Cloudy 76 24.4 66 18.9 72 72 S 13 20 29.92 1013 10 16.0934 0 0
11:56 am 11:56 Mostly Cloudy 77 25 65 18.3 66 66 SSW 21 33 29.91 1013 10 16.0934 0 0
12:56 pm 12:56 Mostly Sunny 79 26.1 64 17.8 60 60 SW 23 37 29.91 1013 10 16.0934 0 0
1:56 pm 13:56 Cloudy 77 25 63 17.2 62 62 SW 20 31 29.91 1013 10 16.0934 0 0
2:56 pm 14:56 Mostly Sunny 79 26.1 65 18.3 62 62 SSW 14 22 29.88 1012 10 16.0934 0 0
3:56 pm 15:56 Mostly Cloudy 80 26.7 65 18.3 60 60 SSW 16 26 29.85 1011 10 16.0934 0 0
4:56 pm 16:56 Mostly Sunny 79 26.1 66 18.9 65 65 S 9 15 29.83 1010 10 16.0934 0 0
5:56 pm 17:56 Mostly Cloudy 80 26.7 65 18.3 60 60 SSW 10 17 29.82 1010 10 16.0934 0 0
6:56 pm 18:56 Partly Cloudy 78 25.6 63 17.2 60 60 S 10 17 29.82 1010 10 16.0934 0 0
7:56 pm 19:56 Mostly Cloudy 78 25.6 62 16.7 58 58 S 13 20 29.8 1009 10 16.0934 0 0
8:56 pm 20:56 Mostly Clear 76 24.4 61 16.1 60 60 S 12 19 29.79 1009 10 16.0934 0 0
9:56 pm 21:56 Mostly Cloudy with Light Rain 75 23.9 62 16.7 64 64 S 31 50 29.75 1007 10 16.0934 0 0.0254
10:56 pm 22:56 Mostly Cloudy with Light Rain 70 21.1 61 16.1 73 73 S 17 28 29.75 1008 10 16.0934 0 0.0254
11:56 pm 23:56 Mostly Cloudy 72 22.2 61 16.1 68 68 S 17 28 29.72 1007 10 16.0934 0 0.0254

Powered by AerisWeather